BREEZE-M R/B, 28998

Orbit data source: Space-Track

BREEZE-M R/B, 28998 is space debris in HEO originally from a launch on Fri, 06 Jun 2003 UTC launched from the Tyuratam Missile And Space Complex (TTMTR). Debris objects in space refer to the collection of defunct objects orbiting the Earth. Examples of debris include non-operational satellites, rocket bodies, and fragments generated from explosions, collisions, or faulty payload assembly.

Loading next visibility...
Identifier
28998, 2003-024C
Orbit
HEO
Country
Flag of CISCIS
Related business
Manufacturer
Khrunichev
Mission
Spacecraft
Bus & Motor
BRIZ, Unknown motor
Mass
~1,600 kg wet, 1,600 kg dry
Launch date (UTC)
2003-06-06 (23 years ago)
Launch vehicle
Unknown
Launch site
Tyuratam Missile And Space Complex (TTMTR)
Object type
Payload
Rocket body
Debris
Shape & HBR
Cyl, 2.0 m
Radar Cross Section
15.135 m², Large (>1 m²)

Expand to show TLE details & history
Last TLE update: 14 hours ago

TLE from 14 hours ago
0 BREEZE-M R/B
1 28998U 03024C   26194.52878047 -.00000041  00000-0  00000-0 0  9994
2 28998  16.7046 129.4273 5074912  77.7694  45.9348  1.82403407 86666
Epoch: 2026-07-13T12:41Z
TLE epoch observation values (Epoch: 2026-07-13T12:41:26.632Z)
Latitude
-0.94371°
Longitude
-169.33493°
Altitude
17,920.336 km
Speed
4.327 km/s
True Right ascension
20h 49m 45s
True Declination
0° 56' 31"
Sunlit
Object was in daylight at epoch
Visualization orbit readout
Latitude
Unknown
Longitude
Unknown
Altitude
Unknown
Speed
Unknown
Apparent Right ascension
Unknown
Apparent Declination
Unknown
Sunlit
N/A
Visualization observer readout
Local Sidereal Time
15:36:45
Azimuth
Unknown
Elevation
Unknown
Doppler factor
Unknown
Orbital elements
Apogee altitude
36,279.911 km
Perigee altitude
7,558.571 km
Semi-major axis
28,297.378 km
Eccentricity
0.50749
Inclination
16.7046°
RAAN
129.4273°
Arg. of periapsis
77.7694°
True anomaly
105.50462°
Mean anomaly
45.9348°
Eccentric anomaly
73.8668°
Mean motion
0.45596 °/min
Orbital period
789.55 mins
BSTAR
0
Loading maneuver chart data...
Computing Atmospheric mass density...
Loading historical data...
Loading historical data...
Loading historical data...
Loading historical data...
Loading historical data...
Loading historical data...
Loading historical data...
Other satellites on launch #24 in the year 2003 (2003-06-06 UTC)

Documentation

Showing up to 5 results
|